This is the latest recevied weather packets stored in our database for station/object IK2YOU-3. If no packets are shown the sender has not sent any weather packets the latest 10 day(s).
| Time | Temp. | Humidity | Pressure | Rain* | Wind** | Luminosity | Snow |
|---|---|---|---|---|---|---|---|
| 1777926279 | 17.78° C | 48% | 1013.6 hPa | 0 mm | - | 0 W/m² | - |
| 1777925680 | 17.78° C | 48% | 1013.7 hPa | 0 mm | - | 0 W/m² | - |
| 1777925210 | 18.33° C | 48% | 1013.6 hPa | 0 mm | - | 0 W/m² | - |
| 1777924479 | 18.33° C | 48% | 1013.6 hPa | 0 mm | - | 0 W/m² | - |
| 1777923886 | 18.89° C | 48% | 1013.4 hPa | 0 mm | - | 0 W/m² | - |
| 1777923278 | 18.89° C | 47% | 1013.4 hPa | 0 mm | - | 0 W/m² | - |
| 1777922676 | 19.44° C | 46% | 1013.3 hPa | 0 mm | - | 0 W/m² | - |
| 1777922078 | 19.44° C | 45% | 1013.2 hPa | 0 mm | - | 0 W/m² | - |
| 1777921476 | 20° C | 46% | 1013.1 hPa | 0 mm | - | 0 W/m² | - |
| 1777921007 | 20° C | 47% | 1013 hPa | 0 mm | - | 0 W/m² | - |
| 1777920277 | 20.56° C | 47% | 1012.9 hPa | 0 mm | - | 0 W/m² | - |
| 1777919675 | 21.11° C | 46% | 1012.9 hPa | 0 mm | - | 0 W/m² | - |
| 1777919075 | 21.11° C | 45% | 1012.7 hPa | 0 mm | - | 0 W/m² | - |
| 1777918475 | 21.67° C | 44% | 1012.6 hPa | 0 mm | - | 2 W/m² | - |
| 1777917876 | 21.67° C | 43% | 1012.7 hPa | 0 mm | - | 5 W/m² | - |
| 1777917275 | 21.67° C | 43% | 1012.7 hPa | 0 mm | - | 10 W/m² | - |
| 1777916676 | 22.22° C | 42% | 1012.7 hPa | 0 mm | - | 20 W/m² | - |
| 1777916075 | 22.22° C | 42% | 1012.7 hPa | 0 mm | - | 29 W/m² | - |
| 1777915475 | 22.22° C | 42% | 1012.7 hPa | 0 mm | - | 37 W/m² | - |
| 1777914876 | 22.22° C | 42% | 1012.7 hPa | 0 mm | - | 43 W/m² | - |
| 1777914276 | 22.22° C | 42% | 1012.8 hPa | 0 mm | - | 48 W/m² | - |
| 1777913678 | 22.22° C | 41% | 1012.8 hPa | 0 mm | - | 50 W/m² | - |
| 1777913075 | 22.78° C | 42% | 1012.8 hPa | 0 mm | - | 57 W/m² | - |
| 1777912476 | 22.78° C | 42% | 1012.9 hPa | 0 mm | - | 67 W/m² | - |
| 1777911875 | 22.78° C | 41% | 1012.9 hPa | 0 mm | - | 82 W/m² | - |
* Rain latest hour (hover to see other rain measurements)
** Current wind speed in m/s (hover to see current wind gust speed)